星链-34073 (STARLINK-34073)

导读

STARLINK-34073是美国太空探索技术公司(SpaceX)于2025年6月25日发射的星链(Starlink)星座卫星,星链是全球最大的低轨卫星互联网星座,旨在为全球尤其是偏远无基础设施覆盖区域提供高速低延迟宽带服务。该卫星属于星链第二代组网卫星,运行在近地轨道,配备相控阵天线与太阳能供电系统,单星设计寿命5-7年,退役后可快速离轨减少太空垃圾,助力完成星链全球覆盖星座部署,可为用户提供50-150Mbps下载速率与20-40ms低延迟网络服务。

基本信息
目录编号:
64606
目录名称:
STARLINK-34073
国际标识:
2025-137N
轨道中心:
EARTH
卫星名称:
星链-34073
卫星全名:
星链-34073 (STARLINK-34073)
卫星状态:
在轨 (已飞行354 天)
发射日期:
2025-06-25 UTC
国别 :
美国 (US)
星等 :
--
轨道信息
数据来源 国际轨道数据
星历时间: 2026-06-13T21:05:46+0800
12小时前
查看轨道信息
半长轴: 6853.537km
偏心率: 0.0001149
轨道倾角: 53.160°
近地点辐角 73.808°
升交点赤经 249.795°
平近点角 286.305°
近地点: 474.612km
远地点: 476.188km
周期: 94.109分钟
每日圈数: 15.301384
详细信息
固有亮度:
5
最大亮度:
2.5
卫星平台:
Starlink V1.0
覆盖范围:
全球
运营商:
太空探索技术公司
运营商所在国:
美国
制造商(研发单位):
太空探索技术公司
制造商所在国:
美国
使用方式:
暂无
卫星简介
Starlink 计划是 SpaceX 推出的全球卫星互联网项目,通过发射低轨道卫星,为全球尤其是偏远地区提供高速、低延迟的互联网服务。自 2019 年起,Starlink 已部署数千颗卫星,旨在缩小全球数字鸿沟,推动互联网普及。该项目还为军事、航空等行业提供通信支持,带来广泛经济效益。
2D轨道图
3D轨道图
轨道高度分析图
轨道倾角分析图
轨道综合分析图
查看轨道综合分析图